Location: Newark
(7.0858°N, 171.3717°E)
Time: 20:23:18
(UTC+00:00)

Vanguard 2 - Pass Details

Date: 28 November 2020
Orbit: 553 x 2937 km, 32.9° (Epoch: 17 January)

Event Time Altitude Azimuth Distance (km) Brightness Sun altitude
Rises 06:29:50 0° 296° (WNW) 3,431 11.6 -4.3°
Reaches altitude 10° 06:31:57 10° 292° (WNW) 2,699 11.1 -4.7°
Maximum altitude 06:38:28 63° 212° (SSW) 1,476 9.2 -6.3°
Drops below altitude 10° 06:49:36 10° 134° (SE) 4,470 11.2 -8.8°
Sets 06:54:07 0° 131° (SE) 5,846 11.7 -9.9°
